ECMWFFLT2_925_thetae_000.txt.gz
Theta_e
334 333 333 335 337 339 338 337 338 339 339 339 339 338 337 336 335 334 333 333 333 330 331 334 330 326 323 323 324 328 331 330 327 325 322 321 322 326 328 330 333 332 328 326 324 322 320 323 326 325 326 328 328 329 329 331 332 330 328 326 326 325
335 333 331 333 335 337 338 337 338 337 337 339 339 337 336 335 334 335 334 330 329 329 331 334 331 328 327 326 325 327 329 329 327 324 323 322 322 325 327 326 330 333 330 327 325 324 323 324 326 325 326 329 328 329 329 331 332 330 328 327 326 326
335 333 331 331 332 333 336 336 336 335 336 338 339 337 336 334 332 332 332 329 326 328 332 334 332 331 332 332 330 328 328 329 328 324 323 324 322 324 327 325 326 331 332 328 326 325 324 324 324 324 327 328 329 329 329 331 331 330 328 327 326 326
336 334 333 333 332 331 331 332 334 335 336 337 337 337 336 335 334 333 332 329 326 328 333 334 333 333 334 336 334 331 330 330 327 324 325 324 322 324 326 325 324 329 332 329 326 325 324 324 323 323 327 328 329 329 330 331 331 330 329 328 327 326
336 336 335 335 334 333 331 329 329 331 334 335 335 335 336 338 338 335 334 331 327 328 330 332 333 334 334 336 337 333 331 329 326 326 325 322 322 323 324 324 323 326 330 328 326 325 324 324 322 323 327 328 328 329 330 331 331 330 328 328 327 327
336 336 336 336 336 337 334 330 328 327 328 330 332 333 335 337 337 336 335 332 329 327 327 329 333 334 334 337 338 333 330 327 325 325 323 320 321 322 323 323 323 324 327 327 326 325 324 324 322 322 325 327 328 329 329 330 330 330 329 327 327 328
335 335 335 336 336 338 336 332 330 327 327 328 329 331 332 334 335 335 334 333 331 328 327 329 332 334 334 338 338 332 328 326 323 323 321 319 320 321 322 323 323 323 325 326 326 324 323 323 322 322 324 326 328 328 329 330 330 329 328 327 328 328
335 334 333 333 334 336 337 334 330 328 329 328 327 328 329 331 332 332 333 334 332 330 330 331 332 334 334 337 337 332 328 326 323 319 319 319 320 321 321 322 323 323 324 324 324 324 324 325 324 322 323 325 327 329 329 329 329 328 328 328 328 328
335 334 332 332 332 333 335 335 332 330 330 329 329 327 330 332 331 329 330 332 332 332 332 333 333 333 334 335 336 333 328 326 323 318 319 320 320 320 320 321 323 323 324 324 325 326 327 328 327 324 322 323 326 329 329 328 328 327 327 328 328 328
336 336 334 332 332 333 334 334 333 333 333 332 331 330 334 336 333 331 331 331 331 333 334 333 333 333 334 335 335 334 330 326 322 318 318 320 321 321 320 320 322 324 326 327 328 329 329 328 328 326 324 322 324 330 330 329 329 327 326 328 328 328
338 336 335 333 332 333 333 333 334 334 334 334 333 333 336 337 335 335 333 331 331 333 334 333 334 334 335 335 335 335 332 327 323 319 318 319 322 322 322 322 323 325 327 328 328 328 328 328 328 328 327 325 325 329 330 330 330 328 326 327 328 328
337 336 334 332 331 332 333 333 334 334 334 335 334 335 337 337 336 334 331 330 332 333 333 334 334 335 334 334 335 334 331 329 324 321 319 318 320 322 323 324 325 326 327 327 327 327 328 328 329 329 329 328 328 328 329 330 330 329 327 327 329 328
336 335 331 329 329 328 328 330 332 334 335 335 335 336 336 336 335 332 330 330 333 334 333 334 334 334 334 333 334 333 331 330 326 323 321 319 319 321 322 323 324 325 325 325 325 326 328 329 330 330 330 329 328 329 329 330 330 329 329 328 328 329
333 331 328 326 325 324 323 323 328 333 335 335 336 336 335 334 334 332 332 332 332 332 332 333 333 333 334 334 334 334 333 331 328 324 323 320 319 319 320 321 322 323 323 325 327 328 330 330 330 330 331 329 328 329 329 330 330 329 329 328 329 329
330 327 325 324 323 322 321 321 324 328 329 330 331 332 332 331 332 331 332 332 330 329 330 332 334 334 334 334 334 335 335 333 330 326 323 322 322 322 322 322 322 324 326 327 330 332 332 332 331 331 331 330 329 328 329 329 329 329 329 328 328 328
327 325 323 323 322 321 322 321 322 323 324 324 324 325 328 329 330 328 328 328 326 325 326 329 332 333 335 335 334 335 335 334 333 330 329 325 325 326 327 327 326 327 329 331 331 332 332 332 332 332 331 331 329 328 329 329 328 328 328 329 329 328
325 324 322 322 321 320 321 321 321 322 323 322 320 322 324 325 325 324 325 324 324 325 325 327 330 331 333 334 334 335 334 335 334 333 333 329 328 329 328 328 329 328 329 330 330 330 330 332 332 332 332 331 329 328 328 329 329 328 329 329 329 329
323 323 321 320 319 319 319 319 320 322 323 319 318 321 322 323 324 324 324 323 324 326 327 328 330 330 332 332 333 333 334 334 334 334 333 331 332 332 329 328 330 330 329 329 330 330 330 331 331 331 331 330 329 328 328 329 329 330 330 330 329 329
322 322 320 319 317 316 317 318 319 321 321 318 318 321 322 323 324 324 323 322 323 324 326 328 329 329 329 329 330 331 333 333 333 333 331 330 330 331 330 330 332 332 331 331 331 330 328 329 330 330 330 331 330 328 327 328 329 330 330 330 330 330
322 321 319 317 315 315 315 316 318 318 317 316 319 321 322 323 323 323 322 322 322 323 324 325 327 327 326 326 327 326 327 328 329 328 327 328 328 329 330 331 332 332 332 332 331 328 327 329 330 329 328 330 331 329 328 327 328 329 330 330 330 330
320 320 318 316 315 314 314 315 315 315 314 315 318 321 322 322 321 321 321 321 321 320 321 322 323 324 324 324 325 324 323 325 326 325 327 328 328 329 329 329 331 332 332 332 330 327 329 331 330 329 328 329 329 329 329 328 328 328 329 329 329 330
319 318 317 316 314 313 314 315 314 312 312 315 318 319 319 317 315 317 319 319 317 316 316 316 317 320 321 322 324 325 324 325 325 325 327 327 326 329 330 329 329 330 331 331 331 330 331 332 331 329 328 329 330 330 330 329 329 329 329 329 329 329
318 317 316 314 311 312 314 315 312 311 312 313 314 314 313 313 312 314 316 315 315 314 313 313 315 318 320 322 323 324 324 324 324 325 326 326 326 328 330 329 329 330 329 329 330 330 330 331 331 330 329 330 331 331 331 329 328 329 329 329 329 329
318 316 315 312 311 313 315 314 312 311 311 309 309 311 311 313 314 314 314 314 315 314 313 314 316 319 320 321 321 321 322 323 323 323 324 325 324 325 327 328 328 329 329 329 330 329 329 329 329 330 331 331 329 328 331 329 326 328 328 329 329 329
317 316 314 312 313 314 315 314 313 313 312 309 310 312 312 313 314 314 314 315 315 313 313 315 317 318 318 319 318 318 320 322 322 322 322 322 322 322 324 325 326 328 329 330 331 331 330 329 328 329 330 331 330 331 332 328 326 328 328 327 328 327
315 315 314 313 315 316 316 315 314 314 312 310 310 311 311 311 311 313 314 315 314 312 314 315 316 316 317 317 318 318 319 320 321 321 321 321 321 321 322 322 323 324 326 327 329 331 330 329 330 329 328 330 331 332 331 328 328 329 328 327 327 327
312 314 315 314 315 316 317 317 316 314 311 309 309 309 309 309 310 311 313 315 313 312 314 315 316 317 317 317 318 318 319 319 320 320 320 320 320 320 320 320 320 322 323 324 326 327 327 328 329 329 328 328 328 329 328 328 329 330 329 328 327 327
310 313 314 315 316 316 317 317 317 316 312 309 310 309 308 308 310 311 313 314 314 313 315 316 316 317 317 318 317 317 318 318 316 315 315 316 316 316 316 317 317 318 319 320 321 323 323 324 325 326 326 327 327 328 328 328 328 328 329 329 327 327
310 312 314 315 316 317 317 317 318 318 314 311 310 310 309 308 309 310 312 314 314 314 315 316 317 317 316 315 313 313 315 314 310 309 309 309 309 309 309 310 312 313 315 316 317 318 319 319 320 321 322 323 324 325 327 328 328 327 327 328 327 327
312 313 314 315 316 317 317 317 318 318 315 312 311 311 309 308 308 309 310 313 313 313 315 316 316 316 315 311 307 308 309 307 306 306 305 304 304 304 305 306 307 308 310 312 313 314 316 316 317 318 318 319 321 322 324 325 325 324 325 327 327 326
313 314 314 315 316 317 317 317 318 318 315 313 312 312 310 308 308 308 308 310 311 312 314 315 315 316 314 310 306 306 305 305 305 305 305 303 303 304 305 305 306 306 308 309 310 311 312 313 314 315 315 316 317 319 320 321 321 321 323 324 325 325
314 314 314 315 317 317 318 318 319 318 314 312 312 312 311 309 308 307 306 307 309 311 312 313 313 313 313 310 306 305 305 306 306 306 306 304 303 303 303 304 305 305 306 306 307 308 309 310 310 311 312 312 314 315 316 317 318 320 321 322 323 324
314 315 316 317 317 318 319 318 318 318 314 312 312 313 312 311 309 308 307 306 307 309 309 309 308 310 310 309 306 306 307 307 308 308 308 305 304 303 303 304 304 304 305 305 306 306 307 307 308 309 309 310 310 311 312 312 313 316 317 319 320 322
313 314 316 317 318 318 319 317 317 317 314 312 312 313 313 312 311 310 308 307 306 307 307 306 306 307 308 308 307 307 309 309 309 309 309 307 304 303 304 304 304 304 304 305 305 305 305 306 306 306 306 307 307 308 308 309 309 311 312 313 315 317
313 313 314 316 317 318 318 317 316 315 314 312 313 312 313 313 312 311 309 308 307 306 307 306 306 307 308 308 308 309 310 311 311 310 310 307 304 304 305 304 304 304 304 304 304 304 304 304 304 304 304 304 304 305 305 305 306 307 308 308 310 311
313 312 313 314 316 317 318 316 315 314 313 312 312 312 313 314 313 312 310 310 309 308 307 306 307 308 308 308 309 310 311 312 312 311 311 307 305 305 306 305 304 304 304 304 304 304 304 304 304 304 304 303 304 303 303 303 303 304 305 306 307 308
314 313 314 314 315 317 318 316 314 313 312 312 312 313 313 314 314 312 311 310 310 310 308 307 307 308 308 309 310 311 313 313 312 311 310 307 305 306 306 305 304 304 304 304 304 304 304 304 304 303 303 302 303 303 303 303 303 303 304 304 305 306

ECMWFFLT2_925_thetae_003.txt.gz
Theta_e
337 339 340 339 339 340 339 340 340 341 341 341 340 338 337 336 336 336 337 337 336 336 335 331 329 325 322 321 324 330 331 327 325 323 321 320 324 330 332 332 329 326 325 323 320 320 320 321 324 327 328 328 328 328 329 331 331 331 331 330 330 329
333 336 339 339 339 339 339 339 340 340 341 341 340 339 338 337 335 334 335 336 334 333 332 331 330 327 325 324 323 326 330 330 325 322 322 321 321 326 331 333 332 328 327 324 322 321 322 323 325 326 327 327 328 328 329 330 331 331 330 329 330 327
332 332 337 339 339 339 339 338 339 339 339 340 339 338 339 337 335 334 333 334 334 331 329 330 331 328 327 326 324 326 331 331 326 322 322 323 321 323 328 332 332 330 328 326 324 323 323 324 324 325 327 328 328 328 329 330 331 331 330 329 329 326
333 331 335 337 338 339 339 338 337 338 338 339 339 338 338 336 335 334 332 331 331 328 328 332 331 331 330 328 327 328 331 331 327 325 323 323 323 324 327 329 331 332 331 328 326 325 324 324 322 323 326 328 328 328 329 330 331 331 330 329 328 326
335 332 333 334 334 335 336 337 337 337 338 339 338 337 336 333 332 332 331 331 330 327 329 333 332 332 333 331 330 330 331 331 329 328 325 325 327 326 326 328 330 332 333 330 327 326 324 324 323 322 326 328 328 329 329 330 331 331 330 329 328 327
336 335 335 334 333 332 331 332 334 335 337 338 337 336 335 332 331 332 332 331 330 329 331 332 331 331 333 334 333 331 332 331 330 331 328 326 327 326 325 325 327 330 332 330 327 326 324 324 324 323 326 328 328 329 330 330 330 330 329 328 328 327
337 336 336 336 336 335 333 330 329 331 333 336 336 335 335 333 334 333 332 331 328 329 330 330 328 329 331 334 334 332 332 330 329 330 327 326 325 323 324 323 322 326 330 329 327 326 324 325 325 324 325 327 328 328 329 330 330 330 329 328 327 327
336 336 336 336 337 337 336 333 329 330 331 332 333 334 333 333 334 334 333 332 328 328 328 328 328 330 332 334 334 332 331 330 328 329 326 325 322 320 321 322 321 324 327 327 325 325 324 324 324 323 324 327 328 328 328 329 330 329 328 327 328 327
335 335 335 335 336 336 336 335 333 332 332 331 331 332 332 331 333 334 334 333 330 328 327 327 329 331 333 334 334 333 331 329 327 327 325 323 321 319 320 320 322 324 325 325 324 324 324 324 323 322 323 325 327 328 328 329 329 329 328 328 328 328
334 334 334 333 333 334 335 336 335 333 333 332 330 331 332 332 332 332 332 332 332 331 330 330 330 332 333 332 333 333 332 330 328 326 323 321 320 320 320 320 322 324 324 324 325 326 326 326 326 325 324 324 327 328 328 328 328 328 328 327 328 327
334 333 332 330 329 330 332 334 334 334 334 333 333 333 332 333 334 333 331 332 332 333 333 332 332 333 333 332 332 333 333 332 331 327 322 320 321 320 319 320 322 323 324 326 328 328 328 328 328 327 325 326 326 327 328 329 328 328 328 327 328 328
333 332 331 329 326 327 331 333 334 334 335 334 335 334 331 333 336 336 334 333 333 333 333 332 332 333 333 333 333 333 334 334 332 328 321 319 322 322 320 320 322 324 326 327 328 328 327 327 327 329 328 327 325 325 328 330 329 330 328 327 327 328
334 333 332 330 326 327 331 331 333 334 334 334 335 335 333 333 335 336 335 333 333 333 333 333 333 332 332 334 334 333 333 333 333 330 324 318 321 324 323 322 324 326 327 326 326 326 326 326 327 329 330 328 326 326 328 329 330 330 329 328 327 328
336 335 331 328 326 326 327 328 331 333 334 333 333 334 333 333 333 333 334 333 332 332 332 333 332 331 332 333 334 333 333 333 334 333 328 321 318 322 324 325 325 326 326 325 325 325 326 330 331 331 331 331 329 328 328 329 329 330 329 329 328 328
336 334 329 326 325 324 323 324 330 332 331 328 327 329 331 332 331 330 330 329 328 328 328 329 330 330 330 333 333 333 333 333 334 334 333 327 321 321 322 323 324 324 324 323 326 327 329 332 332 332 332 331 330 329 328 329 329 329 329 329 329 328
334 331 326 324 323 322 322 323 327 328 325 323 323 327 330 330 329 326 326 326 325 327 328 327 329 329 330 333 333 333 333 333 334 334 334 332 328 324 322 323 324 324 325 326 328 331 332 332 331 331 331 331 331 330 329 328 329 329 329 329 329 329
330 327 324 323 322 322 321 323 325 323 322 321 323 326 327 326 325 324 325 325 325 328 329 329 330 331 331 332 332 333 331 331 332 332 331 332 330 328 326 328 329 328 328 327 328 330 331 331 331 331 331 331 331 330 329 328 328 328 328 328 329 329
326 324 323 322 321 321 320 320 323 322 320 320 321 323 324 324 324 324 323 323 324 326 328 329 330 330 331 331 331 332 331 330 330 329 329 330 331 330 330 330 329 328 327 326 326 327 329 330 330 331 331 330 331 330 329 328 327 328 328 328 328 328
325 324 322 321 320 319 318 318 321 322 320 318 321 323 323 324 323 323 321 321 322 323 325 326 326 328 328 328 328 329 330 329 330 328 327 330 331 331 330 329 327 328 327 327 328 329 331 330 329 331 331 330 330 330 329 328 328 327 327 328 328 329
324 323 321 320 319 317 317 319 320 321 319 318 321 322 323 323 322 321 320 320 320 321 323 323 323 324 325 325 325 326 327 328 329 328 326 328 329 329 330 330 329 329 328 328 330 330 332 330 328 330 329 328 328 329 329 329 329 328 327 327 327 328
324 322 320 319 317 316 317 318 319 318 317 318 321 323 323 322 320 320 320 319 318 318 318 318 320 321 322 324 324 325 326 326 327 326 326 327 328 328 329 330 330 330 330 329 329 331 331 329 329 330 329 328 327 327 328 329 329 329 328 328 328 328
323 321 320 318 315 315 315 316 317 316 314 317 321 322 321 317 316 317 317 315 314 313 312 315 320 321 323 324 324 324 325 326 326 325 327 328 328 329 329 329 329 329 330 330 331 331 331 329 330 331 329 329 329 327 327 327 328 328 329 329 329 329
323 321 319 316 315 314 313 314 315 313 313 316 319 318 314 311 313 315 314 314 313 312 314 316 320 321 321 322 323 324 324 325 326 326 327 327 328 329 329 329 328 328 328 329 330 331 331 329 330 330 329 331 332 331 330 329 327 327 327 328 328 328
322 321 318 316 315 313 312 314 313 312 311 313 314 313 312 312 313 314 315 315 313 314 317 318 319 319 319 319 321 322 323 323 324 324 325 325 326 327 328 328 327 327 327 326 327 330 330 329 330 331 330 331 331 331 334 332 329 326 325 328 327 326
321 320 318 316 314 311 313 314 312 312 311 310 311 312 314 314 314 315 316 314 313 315 317 316 317 318 317 318 319 321 322 322 322 322 323 323 323 323 325 327 327 328 328 328 328 330 330 329 329 330 329 330 330 331 332 331 329 328 326 327 327 327
320 319 317 315 312 310 312 313 311 311 310 310 312 313 313 313 313 315 316 314 313 315 315 316 316 317 317 318 319 320 321 321 321 321 321 321 321 321 321 323 325 326 328 328 330 330 330 330 329 329 328 329 330 331 330 329 330 331 329 327 327 326
319 318 316 313 311 310 313 313 310 309 308 309 310 310 310 311 312 314 315 313 313 315 316 317 317 318 318 318 318 319 319 320 320 319 319 320 320 320 319 319 321 322 324 326 328 328 328 328 328 328 328 329 329 329 329 329 330 332 332 329 327 326
318 317 315 312 311 311 313 312 311 310 308 308 308 308 309 311 312 313 314 314 313 315 317 317 317 317 316 316 317 317 315 314 314 313 313 314 314 315 316 316 317 319 320 322 323 324 325 325 326 326 327 328 329 328 328 328 328 329 330 330 328 327
318 317 314 312 311 311 312 312 311 311 311 309 308 308 309 310 312 313 314 314 313 315 316 316 316 314 313 314 314 311 308 307 306 305 305 306 306 307 309 310 312 314 316 317 318 320 320 321 322 322 323 324 325 326 326 326 326 326 327 328 328 327
316 316 314 312 312 312 313 313 312 311 312 311 310 309 309 310 311 313 314 314 313 314 315 316 315 312 310 311 309 306 305 305 303 303 303 303 303 304 305 306 308 310 311 312 313 315 315 317 318 319 320 321 321 322 323 324 324 324 325 326 325 326
316 315 314 313 313 312 313 313 312 311 311 313 312 311 309 310 311 312 313 314 313 313 314 315 314 311 309 308 306 305 306 306 304 303 302 302 303 303 303 304 305 306 307 308 309 310 310 312 313 315 316 317 319 319 320 320 321 321 322 323 323 323
315 315 315 314 314 313 313 313 313 311 311 312 313 312 311 310 310 310 311 313 313 313 315 315 313 312 310 307 306 307 307 307 306 304 303 302 302 303 303 303 304 304 305 306 307 308 308 308 310 312 313 314 314 315 316 316 317 318 319 319 320 321
313 315 315 315 315 314 314 313 313 312 311 312 314 314 312 311 310 308 308 311 312 312 314 314 312 312 310 308 307 308 308 309 308 305 304 303 303 303 303 303 304 304 305 306 306 306 307 306 307 308 309 310 310 311 312 312 313 314 314 315 317 318
312 312 313 314 315 314 314 314 313 312 311 311 313 314 313 312 311 309 308 308 308 308 310 310 309 309 310 309 309 309 309 309 309 307 305 304 304 303 303 304 305 304 305 306 305 306 306 306 305 305 306 306 307 308 308 308 310 311 311 312 314 315
311 312 312 313 315 315 315 315 314 313 312 311 312 313 313 312 312 312 309 307 306 306 306 306 306 307 309 310 310 310 311 310 310 309 306 305 305 304 303 304 304 304 305 305 305 306 306 306 305 305 304 304 305 306 306 306 307 308 308 309 311 312
313 313 313 314 315 316 316 316 315 315 314 313 312 313 314 313 312 312 311 309 307 307 306 306 306 307 308 310 311 312 312 311 311 309 307 305 305 305 304 304 305 305 305 306 306 306 306 306 305 305 304 304 304 305 304 305 306 306 307 307 308 309
313 313 314 315 315 316 316 317 317 317 316 315 314 313 314 313 312 312 313 312 309 308 307 306 307 308 308 310 312 313 312 312 312 310 307 306 305 305 305 305 305 306 306 306 306 306 306 306 305 305 305 304 304 304 304 304 305 305 306 307 308 308

ECMWFFLT2_925_thetae_006.txt.gz
Theta_e
342 342 342 342 341 341 341 340 339 338 336 335 336 336 338 338 338 338 337 338 338 337 335 332 331 329 330 331 330 329 328 326 324 323 323 325 330 332 331 328 325 326 326 326 326 325 324 320 322 327 328 328 327 331 333 334 332 332 333 331 332 331
341 341 342 342 342 341 340 340 340 340 339 338 337 337 339 339 340 340 338 338 338 339 337 334 334 332 330 331 329 329 330 328 325 324 322 322 325 330 333 331 326 324 325 324 323 324 324 321 321 326 328 328 329 333 334 334 333 331 332 332 333 329
340 341 342 342 343 342 341 341 340 340 340 340 339 338 340 338 340 340 338 339 339 338 338 336 337 334 331 332 330 327 330 330 328 324 322 322 323 327 332 332 328 326 326 324 324 326 328 326 325 326 329 330 331 333 333 334 333 332 331 331 333 327
339 340 342 343 343 343 342 342 341 340 338 339 339 339 340 339 339 339 338 339 339 338 337 337 336 332 330 331 331 328 328 329 330 326 322 325 326 326 329 331 331 328 327 327 328 328 327 328 329 328 331 331 331 332 333 334 332 332 331 331 332 326
338 339 341 341 342 342 342 342 341 341 339 338 339 340 340 340 340 340 340 338 338 337 335 336 336 333 333 334 335 333 331 331 332 329 325 328 330 328 328 331 333 331 330 330 330 329 327 328 329 329 331 331 331 332 332 333 332 332 331 331 331 326
337 338 339 340 339 340 340 341 341 341 340 339 340 340 341 341 341 340 339 338 338 336 332 335 337 336 337 337 336 336 335 335 333 332 329 330 331 330 329 331 332 332 331 331 331 330 329 329 329 329 330 331 331 331 332 332 332 332 331 332 331 327
337 337 338 338 338 338 338 339 340 340 339 339 340 340 341 340 340 340 339 338 337 334 331 334 336 336 337 338 337 337 336 336 335 333 332 331 329 330 329 329 331 331 331 331 331 331 330 329 329 329 328 330 330 330 331 332 332 332 331 332 331 327
336 337 337 336 337 338 337 337 338 338 339 339 339 339 340 340 340 340 339 339 337 334 333 332 333 334 336 337 338 337 337 336 334 332 333 331 329 329 329 329 330 331 330 330 330 330 329 329 329 329 328 329 330 330 331 331 331 332 332 332 332 329
335 335 336 335 335 336 336 336 336 337 338 338 339 339 340 340 340 340 339 339 337 337 335 332 333 334 336 337 338 337 337 337 333 331 332 331 329 329 328 329 329 329 330 329 329 329 329 329 329 329 328 328 329 329 330 331 330 331 331 331 332 330
333 333 333 333 333 333 334 335 335 337 338 338 339 339 338 339 339 339 339 338 337 338 336 334 335 336 336 337 337 336 336 336 334 332 333 331 330 329 328 328 327 327 328 328 328 328 328 329 329 329 328 327 328 329 330 330 330 330 330 330 331 331
332 334 332 331 332 333 333 333 334 336 338 339 338 337 336 338 338 336 337 337 337 338 338 337 337 337 336 336 336 336 336 335 333 332 332 331 330 329 329 327 326 326 326 327 327 328 328 328 328 328 328 327 327 328 329 329 330 330 329 329 330 331
333 334 332 329 331 332 332 332 332 334 337 338 338 336 337 339 338 336 336 337 337 337 337 338 338 336 335 335 336 337 336 334 332 331 329 330 331 329 329 327 326 327 326 327 328 328 329 328 328 327 328 328 327 328 328 329 329 329 329 329 329 330
334 334 332 330 330 330 331 331 331 333 336 338 338 337 337 337 336 335 336 336 336 335 335 337 338 337 335 335 337 337 336 335 333 330 328 329 331 330 329 328 327 328 327 328 329 329 329 329 329 329 329 328 328 328 327 328 328 329 329 329 329 329
335 334 332 331 330 330 331 330 331 332 334 335 336 337 337 336 334 335 336 335 335 335 335 336 336 336 336 336 336 336 335 334 332 331 329 328 330 330 329 329 327 328 328 328 329 330 330 330 330 330 331 330 329 328 328 327 328 328 329 329 329 329
336 335 333 332 331 331 331 330 330 331 332 332 332 334 336 336 334 334 335 335 335 335 334 334 335 336 336 335 335 336 335 334 333 332 330 329 330 330 329 330 329 329 329 329 329 330 330 332 333 332 331 331 330 330 329 328 328 328 329 329 329 329
336 335 333 332 331 330 330 330 329 329 329 329 329 331 333 334 333 333 334 334 334 333 333 333 334 335 335 335 335 336 335 334 333 332 331 330 330 330 328 330 331 331 332 331 331 330 330 332 332 331 331 331 331 330 329 329 328 328 328 328 328 328
335 335 332 329 329 329 330 329 328 328 328 328 328 328 329 329 330 331 332 333 332 331 332 332 333 334 335 334 335 335 335 334 333 332 332 331 330 331 330 331 333 333 333 333 332 331 332 332 330 330 330 330 330 331 329 328 328 328 327 327 327 327
336 333 329 328 328 328 328 328 327 327 327 327 327 327 326 326 327 329 330 331 331 331 331 332 333 333 334 334 334 334 333 334 334 333 332 332 330 331 331 331 334 334 332 332 333 332 332 331 330 330 330 330 330 331 330 328 328 328 328 328 327 327
334 329 326 327 327 327 326 326 326 326 326 326 325 325 325 326 326 327 327 328 329 328 329 329 330 332 332 333 333 333 332 333 333 333 333 333 332 332 331 329 331 333 332 331 332 330 328 328 329 330 330 330 330 330 331 331 330 329 329 329 329 329
331 327 326 326 325 323 323 323 324 324 325 325 325 325 325 325 325 326 326 326 326 326 326 327 328 328 329 331 331 332 333 332 333 334 333 333 332 332 332 331 331 333 334 333 331 329 328 328 329 330 330 329 329 330 330 331 331 330 330 330 330 331
329 326 325 325 323 321 321 321 322 322 323 323 324 323 323 323 324 324 323 323 322 323 324 325 326 327 327 328 329 330 332 332 332 333 333 333 333 333 333 333 333 333 333 334 333 330 330 330 330 331 330 328 328 328 328 330 331 330 330 331 331 332
328 325 325 325 322 321 321 321 321 320 320 321 322 321 321 322 322 321 320 319 319 319 322 323 324 325 326 326 326 327 329 330 331 332 332 332 332 332 333 333 333 333 332 333 333 331 330 331 331 331 331 330 330 329 328 328 329 330 330 331 331 332
328 325 326 324 322 321 322 322 321 320 320 320 321 321 320 320 320 319 319 319 319 320 322 322 322 323 323 324 324 325 326 327 328 329 330 331 331 332 332 332 331 332 333 333 333 331 330 331 331 330 331 331 332 331 330 329 329 330 329 329 329 329
327 326 326 324 322 322 321 322 322 322 321 320 319 319 319 320 320 319 319 319 321 322 322 322 322 321 321 322 323 324 324 325 326 326 327 328 329 329 330 330 330 330 330 331 332 331 331 331 330 330 331 332 332 331 332 331 331 330 328 327 328 328
327 326 325 324 324 322 319 319 321 320 319 318 318 319 319 320 320 319 318 319 320 321 321 321 321 321 320 320 321 323 323 324 325 325 325 325 325 326 327 328 328 329 329 331 331 331 331 331 330 330 331 331 331 331 332 332 332 331 328 326 328 328
328 326 324 324 323 320 319 319 319 318 317 317 318 319 319 320 320 319 318 319 320 320 321 321 321 320 320 319 320 322 322 322 322 323 323 323 322 323 324 325 326 327 328 330 330 330 330 330 329 329 330 330 331 332 331 331 331 331 329 326 327 328
328 326 324 324 322 320 320 320 317 316 316 316 317 319 319 320 320 319 318 319 320 321 321 321 321 320 319 318 319 320 321 320 320 321 321 321 321 321 321 322 324 325 326 327 328 328 328 329 327 327 329 329 329 330 329 330 330 331 330 328 328 328
327 325 324 323 322 320 319 320 318 316 315 315 317 318 319 320 319 319 319 319 321 322 321 321 321 321 320 319 319 319 319 319 318 318 319 319 320 321 321 321 322 323 323 324 325 325 326 326 325 325 327 327 327 328 328 329 329 329 329 329 329 330
326 324 324 321 320 321 320 319 319 317 315 315 317 318 317 319 319 319 319 320 320 321 320 319 319 320 319 317 315 315 315 315 314 314 314 315 317 318 319 320 321 321 321 321 322 322 323 323 323 324 324 324 325 326 326 328 327 326 328 328 328 329
326 325 324 320 318 321 321 320 319 318 316 316 317 317 317 319 319 319 319 319 320 319 318 318 318 317 315 313 313 312 312 312 312 311 311 312 313 314 316 317 318 319 319 320 320 320 320 320 321 321 321 322 322 322 323 325 324 323 324 325 325 325
325 324 324 320 319 321 322 321 320 319 318 317 317 317 318 319 320 319 319 318 319 319 317 316 316 316 313 313 313 313 312 312 312 311 311 311 312 312 313 313 314 315 316 317 317 317 318 318 319 319 319 319 319 320 320 321 320 320 321 322 321 322
325 324 324 321 320 322 323 322 321 320 319 318 318 317 318 319 319 319 319 318 318 318 317 316 316 315 314 314 314 313 313 312 312 312 311 311 311 311 312 312 313 313 313 314 314 314 315 315 316 316 316 316 316 317 318 318 318 318 318 319 319 318
325 324 324 322 321 322 323 322 322 322 320 319 320 318 318 319 319 318 318 318 317 317 317 317 316 315 314 314 314 314 314 312 312 311 311 311 311 311 311 311 312 312 312 312 313 313 313 313 313 313 313 313 313 314 315 315 315 316 316 316 317 317
325 324 324 323 322 322 323 323 323 323 322 320 321 319 318 319 319 318 318 318 316 316 317 317 317 316 314 314 315 315 314 313 312 311 311 311 311 311 311 311 311 312 312 312 312 312 312 311 311 311 311 311 311 312 312 312 313 313 314 314 315 315
325 324 324 323 323 322 323 323 323 324 324 322 321 320 319 319 320 319 318 318 316 316 317 317 317 317 315 315 316 315 315 314 313 312 311 311 311 311 311 311 311 312 312 312 311 311 311 311 310 310 309 309 310 310 310 310 310 311 311 311 313 313
325 324 324 324 323 323 323 324 324 324 325 324 323 321 319 319 321 321 320 318 316 316 316 316 318 318 316 315 316 316 315 315 314 313 312 312 311 311 311 311 311 312 312 311 312 312 311 311 310 310 309 309 309 309 309 308 309 309 310 310 311 311
323 324 324 324 324 324 324 324 324 323 322 323 324 322 322 321 319 320 320 319 317 317 316 317 318 319 317 316 316 316 316 315 314 313 312 312 311 311 311 311 311 312 312 311 311 311 311 311 311 310 310 309 309 309 309 308 309 309 310 310 310 310

ECMWFFLT2_925_thetae_009.txt.gz
Theta_e
344 344 343 342 340 339 338 336 336 336 336 335 336 337 337 336 336 336 335 335 334 335 336 334 332 333 333 332 331 331 329 328 327 328 329 329 331 330 329 330 330 329 329 328 329 328 329 327 325 327 328 328 328 331 334 334 332 331 331 329 332 334
344 343 342 342 341 342 340 338 338 337 336 334 335 338 338 336 337 337 335 337 336 337 339 337 334 332 332 333 333 331 329 326 325 325 324 324 328 330 330 330 328 328 328 327 327 327 329 327 324 326 327 327 329 334 335 333 332 330 330 330 333 332
343 344 343 342 342 343 341 340 340 339 338 335 334 336 339 338 338 339 337 337 337 335 338 338 336 335 332 334 333 329 328 327 325 324 322 322 324 328 331 330 327 325 325 325 324 326 328 328 326 325 326 329 331 334 334 334 334 330 330 331 332 329
341 342 342 341 341 342 341 341 341 340 339 338 336 335 338 339 338 340 339 337 337 335 336 337 336 336 332 334 334 328 328 329 328 325 323 325 326 328 329 331 330 327 326 326 326 327 327 328 328 326 327 331 333 333 334 334 333 331 330 331 331 327
339 341 340 340 340 340 340 340 340 340 339 338 338 338 338 338 339 339 338 337 336 334 335 335 336 336 332 334 335 331 331 331 331 329 326 328 331 331 331 332 332 329 329 329 328 329 327 326 328 328 330 332 333 333 334 334 333 332 331 331 331 325
339 339 339 339 338 338 338 338 338 338 339 337 336 338 337 337 338 337 337 337 335 334 334 334 334 335 333 334 335 334 334 333 333 332 329 330 332 332 332 333 334 332 331 331 330 331 329 328 328 328 329 331 332 333 333 334 333 333 332 333 331 324
338 339 339 338 337 336 337 336 336 337 338 338 336 337 337 338 337 336 337 335 334 334 333 333 335 335 335 334 334 334 335 334 334 333 332 332 331 331 331 332 334 333 332 332 331 331 330 329 329 328 328 329 331 332 333 333 333 333 332 334 332 325
337 339 338 338 337 336 335 335 335 337 338 338 338 337 336 337 337 336 337 336 335 335 332 332 335 335 335 335 335 335 336 335 335 334 334 333 331 330 330 330 331 332 331 331 331 331 331 330 329 329 328 328 329 330 332 333 333 334 333 334 333 326
334 336 336 336 336 336 337 336 335 336 336 336 337 336 336 337 336 336 337 337 337 336 334 333 333 334 335 335 336 336 335 335 335 334 334 334 331 330 331 330 331 331 331 331 330 330 331 330 330 329 328 328 328 329 330 332 333 334 333 332 333 329
331 331 332 333 334 335 336 336 336 336 337 337 336 337 338 337 335 334 336 338 338 337 337 334 334 335 334 335 335 336 336 335 335 334 333 333 332 331 331 330 330 330 330 330 328 329 330 330 330 330 328 327 328 328 329 331 332 333 333 332 333 331
329 330 330 330 331 333 333 334 334 336 338 339 337 338 339 337 336 335 336 338 337 336 337 335 335 336 334 334 334 336 337 335 335 336 335 333 331 331 331 330 329 328 328 327 327 328 328 329 330 330 328 328 327 328 328 330 331 331 332 331 332 332
329 329 330 329 330 331 331 330 331 333 338 339 338 339 338 337 337 336 336 337 336 336 337 335 336 337 335 333 334 336 337 335 336 337 336 334 331 331 331 330 327 327 327 327 327 327 327 328 329 329 328 328 327 327 327 329 330 330 330 330 330 331
329 329 330 330 330 330 330 330 330 330 336 339 338 338 337 337 336 336 337 338 338 337 337 336 334 336 334 332 334 336 337 337 337 337 336 334 333 332 330 330 328 327 327 328 329 328 328 328 328 328 328 328 327 327 327 327 328 329 329 330 329 330
331 330 331 330 329 330 330 330 329 329 334 338 338 337 337 337 336 335 337 338 338 337 336 335 333 334 334 332 334 336 337 338 337 337 336 334 333 332 331 330 329 328 328 328 329 329 329 328 328 329 329 329 328 328 328 327 327 328 329 330 329 328
334 332 331 331 330 331 330 330 330 329 332 335 336 336 336 336 336 336 336 335 336 336 335 335 334 334 334 332 334 336 337 338 337 337 336 333 332 332 331 330 330 329 329 329 330 330 330 331 330 330 330 330 330 329 329 328 328 328 328 329 329 329
336 334 332 332 332 332 330 330 330 330 331 331 333 335 335 335 336 335 334 333 335 335 335 334 334 334 334 333 333 336 337 338 338 336 335 334 332 332 332 332 331 330 330 330 330 331 332 332 330 329 330 330 329 330 330 330 329 328 328 329 329 329
336 336 332 331 331 331 330 329 329 329 329 329 329 331 332 332 334 333 331 331 334 334 334 334 334 334 335 335 335 336 337 337 337 336 336 336 333 333 332 332 332 332 331 331 330 331 332 332 331 331 330 330 329 329 330 330 329 329 328 328 328 328
336 334 331 329 330 330 329 328 327 327 327 327 327 327 327 328 330 331 331 331 332 333 333 334 334 334 336 335 335 336 336 336 336 336 336 336 334 333 333 332 334 334 332 332 330 330 331 332 333 333 331 330 329 329 330 330 329 329 328 327 328 328
336 333 330 329 330 329 328 326 326 326 325 325 325 326 326 326 327 328 330 330 331 331 331 333 332 334 335 334 335 335 335 335 335 336 335 336 335 334 334 335 335 334 333 332 331 330 332 333 333 333 332 331 330 329 330 330 329 328 328 328 327 327
335 331 329 329 328 326 326 326 325 325 325 325 325 325 325 325 325 325 327 328 328 328 329 330 330 331 332 332 334 333 334 335 334 335 334 334 334 334 335 336 336 334 332 332 332 333 334 333 333 332 331 331 330 329 330 330 329 329 328 329 329 328
334 330 328 327 326 325 325 325 325 325 325 324 323 323 323 324 325 324 324 324 324 326 326 327 326 327 328 329 330 331 334 334 333 333 332 333 332 333 334 336 336 333 330 331 331 332 334 332 332 332 330 329 329 327 327 328 327 328 329 329 329 329
333 328 327 326 325 324 324 323 324 324 323 322 321 321 322 322 322 322 321 321 321 322 323 325 325 326 326 326 326 328 331 333 333 332 331 331 332 332 333 334 334 331 328 330 329 331 334 333 332 332 329 330 331 329 328 327 326 327 329 328 328 329
332 327 326 325 324 323 324 323 323 322 322 322 323 323 321 321 320 320 321 321 323 323 323 323 323 324 324 325 325 325 327 329 331 331 331 332 331 330 330 330 331 330 329 329 329 331 333 332 332 331 329 330 332 332 332 330 327 327 329 329 327 328
331 326 326 325 324 324 325 324 323 322 322 321 321 320 320 320 320 320 322 323 324 324 324 323 323 322 322 323 324 324 325 327 328 328 329 330 330 330 330 329 330 332 331 330 329 330 331 331 330 330 330 331 332 332 334 332 330 330 330 328 327 327
330 326 326 324 324 326 326 325 324 323 320 318 318 319 320 320 321 320 322 323 323 323 323 323 323 322 322 322 322 323 324 325 326 326 327 327 327 328 328 329 330 331 332 331 330 329 330 331 330 329 329 331 332 333 333 331 330 332 329 326 327 327
330 327 325 325 326 325 323 323 322 320 318 317 318 320 321 321 320 320 321 322 322 323 323 323 322 321 321 321 321 321 322 323 324 324 325 324 324 324 324 325 327 328 329 330 330 328 328 329 330 329 329 330 331 331 331 330 330 332 330 327 326 327
330 328 325 325 326 323 321 321 319 318 317 318 320 320 321 321 320 320 321 322 323 323 323 323 322 321 321 320 320 320 321 322 322 322 322 322 322 323 322 323 324 325 326 327 329 328 327 327 329 328 328 329 330 328 328 329 329 330 330 329 328 328
330 327 325 326 325 321 321 321 318 318 317 318 321 321 321 320 319 320 321 322 323 323 323 322 322 322 321 321 320 320 320 320 320 319 320 321 321 322 322 322 323 323 324 324 326 327 326 326 328 328 327 327 328 327 327 327 327 327 326 328 329 329
329 328 325 325 324 321 322 321 319 319 318 319 320 320 320 319 319 320 321 322 322 321 322 322 322 320 318 318 318 317 317 316 316 316 316 317 319 320 321 322 323 323 323 323 324 324 324 324 325 326 325 325 326 327 326 326 326 325 325 327 328 328
330 328 325 324 324 322 323 321 320 319 318 320 319 318 319 319 319 320 321 321 321 320 320 321 319 317 315 315 315 314 314 314 314 313 314 314 315 317 318 319 320 321 321 322 322 322 322 322 321 322 322 323 324 324 325 325 325 324 324 325 325 325
330 329 326 325 324 323 323 322 321 319 319 320 319 318 319 320 320 320 320 320 319 318 319 319 317 316 315 315 315 314 314 314 314 314 314 314 315 315 316 317 317 318 318 319 319 319 319 319 320 319 319 319 319 320 321 321 321 321 320 321 321 321
330 328 327 326 323 324 324 322 321 320 319 320 319 319 320 320 320 320 320 320 320 319 318 318 317 316 316 316 315 315 315 314 314 315 314 314 314 314 315 316 316 316 317 317 317 317 317 316 317 317 317 316 316 317 318 318 317 317 317 318 317 316
329 328 328 326 323 324 324 323 322 321 320 320 320 320 321 320 320 320 319 320 320 319 318 318 316 317 317 316 316 316 315 315 315 315 315 314 314 315 315 315 315 316 316 316 316 316 315 315 314 314 314 314 314 315 316 315 315 316 316 316 316 316
329 329 329 326 323 324 324 324 323 322 321 320 320 320 321 320 320 320 319 319 319 319 318 318 317 317 316 316 317 316 315 314 314 315 315 315 315 315 315 314 315 316 315 315 316 315 315 314 314 313 313 313 312 313 313 313 314 314 314 314 315 316
330 329 328 326 323 323 325 324 323 322 321 320 321 320 319 320 320 320 320 319 318 319 319 318 318 317 316 317 318 317 315 314 314 314 314 314 314 314 314 314 314 315 315 315 315 314 314 313 314 313 312 312 312 312 312 311 312 312 312 313 313 314
330 329 329 326 324 323 324 325 324 323 322 321 321 320 319 320 320 320 320 320 318 318 319 319 319 317 316 318 318 316 316 315 314 314 314 314 314 314 314 314 314 315 315 315 315 315 314 314 314 314 312 312 312 313 311 311 311 312 312 312 313 313
328 328 328 327 325 323 323 325 325 324 323 323 322 321 320 320 321 321 320 320 318 318 319 319 320 318 317 318 318 317 317 316 315 314 314 314 314 314 314 314 315 315 315 315 315 314 314 313 313 313 312 311 311 312 311 310 311 312 312 312 312 312

ECMWFFLT2_925_thetae_012.txt.gz
Theta_e
340 338 337 337 335 334 333 332 332 333 333 333 334 333 334 335 335 335 333 334 334 335 335 335 336 337 336 334 332 330 330 329 329 330 331 330 330 330 331 333 331 329 329 328 329 329 328 327 326 328 328 327 327 330 333 333 332 331 332 332 331 332
343 341 340 340 338 336 334 334 334 334 334 333 334 333 334 336 336 336 334 335 334 334 336 335 335 336 335 334 332 330 329 328 327 326 328 329 329 330 330 331 331 329 329 329 328 327 326 326 326 327 328 327 328 330 334 334 330 330 331 331 331 331
344 344 343 342 341 339 337 337 336 335 335 334 334 334 336 337 337 336 334 335 334 333 336 335 334 335 334 333 332 331 329 327 325 324 325 325 325 328 330 330 331 329 328 327 326 326 325 325 323 325 327 327 331 333 334 334 331 331 332 331 331 330
343 343 344 343 342 342 340 339 338 337 338 336 335 336 338 338 337 336 335 335 334 334 336 336 335 335 334 333 331 330 329 327 325 325 324 324 325 327 329 330 330 328 326 326 325 326 327 328 324 322 325 328 333 334 333 333 332 332 332 331 329 329
343 343 342 342 341 342 341 341 340 339 340 339 338 338 338 338 338 337 336 336 336 336 336 336 337 336 335 334 332 330 329 328 327 328 325 326 329 330 329 331 331 328 326 326 327 327 328 330 328 324 326 332 334 333 334 333 333 333 331 330 329 326
342 342 341 341 341 342 342 341 342 341 341 340 339 339 338 339 339 338 338 337 337 337 336 336 337 336 334 334 334 332 331 329 329 331 328 328 332 331 331 332 333 330 328 329 329 329 329 329 330 328 328 332 332 332 333 334 333 333 331 330 329 325
341 340 339 340 341 341 341 341 342 341 340 339 339 339 339 339 339 338 337 337 338 337 335 335 336 336 335 333 334 334 334 331 331 333 331 330 332 331 332 333 334 333 331 331 330 331 331 329 328 328 328 330 331 331 333 333 333 333 333 332 330 325
339 339 340 339 338 339 339 339 340 340 340 340 339 339 339 339 339 339 338 338 338 337 334 333 334 335 334 333 333 334 334 333 332 333 332 332 333 332 331 333 333 333 332 332 332 332 330 329 328 327 328 328 329 330 331 333 333 334 333 332 331 326
338 339 339 338 338 338 338 338 337 337 339 340 339 337 338 338 339 339 338 337 337 335 333 333 333 333 334 333 333 334 334 334 333 333 333 333 332 331 332 332 332 332 332 332 332 332 330 331 329 328 328 328 329 329 331 333 333 334 334 333 332 327
336 337 335 335 336 335 335 337 336 336 338 338 338 338 337 336 337 337 337 336 335 334 332 332 332 332 332 334 334 334 335 334 334 333 333 334 333 331 331 331 332 331 331 330 331 331 331 331 330 329 329 327 328 328 330 332 333 333 333 334 333 330
332 334 333 333 334 332 333 334 334 336 337 336 337 337 336 336 336 335 336 336 335 333 332 332 331 331 332 333 333 334 336 334 334 334 333 333 333 331 331 331 331 331 331 329 329 330 330 330 330 330 329 327 327 328 329 330 331 332 333 333 333 332
330 331 332 332 332 332 331 331 332 333 334 334 335 336 336 336 335 335 335 335 335 333 333 333 332 333 332 332 332 334 336 335 334 334 334 333 332 332 331 331 330 329 329 328 328 328 329 329 330 330 329 328 327 327 327 328 329 330 331 332 332 332
328 330 332 331 331 331 331 331 331 332 334 334 334 335 334 334 334 334 334 334 334 334 333 333 332 333 333 333 332 333 335 335 335 335 336 334 333 332 331 331 329 327 327 326 326 328 328 328 329 329 329 329 328 327 327 327 328 329 330 331 332 332
328 331 330 329 330 330 329 329 328 333 335 334 333 334 333 333 333 333 334 334 334 334 334 333 333 333 334 333 332 334 334 335 336 336 336 335 334 333 331 331 329 327 328 327 328 329 328 329 331 331 330 329 330 329 328 328 328 328 329 329 331 332
330 331 330 329 331 330 330 329 329 333 335 334 332 332 333 333 333 332 333 333 333 334 334 333 334 334 334 334 333 335 335 335 336 337 337 336 334 333 332 331 330 328 329 328 329 329 330 332 333 331 329 329 330 330 330 329 329 329 329 328 329 331
332 332 332 332 332 330 330 330 330 331 331 332 332 332 332 331 332 332 332 332 332 333 333 333 334 333 333 332 332 335 336 336 336 337 337 335 333 333 331 331 330 330 330 330 330 330 331 332 332 330 329 329 329 329 329 330 330 329 329 329 329 329
333 333 332 331 330 329 329 329 329 330 329 330 331 331 332 331 331 331 331 332 332 332 333 334 334 334 333 332 333 334 335 336 337 336 336 335 333 332 331 331 331 331 330 330 330 331 333 331 330 331 330 329 328 328 328 329 330 329 329 329 329 329
334 332 331 330 330 329 328 327 327 326 326 328 328 328 329 330 331 331 332 333 332 332 333 333 333 334 334 332 334 335 335 335 336 335 335 335 334 332 331 330 331 332 331 330 330 331 333 332 330 331 331 331 330 329 328 328 328 329 329 329 328 329
333 330 330 330 329 328 326 325 324 323 324 326 326 326 327 327 328 329 330 330 330 330 331 332 332 332 332 331 333 334 334 335 334 334 334 335 334 332 331 330 331 333 332 332 331 330 331 331 330 331 332 332 332 330 328 328 327 328 328 328 328 328
332 330 330 330 328 326 326 325 325 325 324 325 325 325 326 326 326 327 328 328 328 329 329 330 329 329 330 330 332 332 333 334 333 333 333 333 333 331 330 331 331 332 332 331 331 329 329 332 332 331 330 330 331 330 327 327 327 328 329 328 328 328
331 330 329 328 327 326 326 325 326 326 324 323 322 324 325 325 324 324 324 324 325 326 327 327 327 328 328 329 329 330 332 333 333 332 332 333 333 332 331 331 330 331 332 331 331 330 330 332 331 329 330 329 329 327 327 327 326 326 327 328 328 328
330 329 328 327 326 326 325 324 324 325 324 322 321 322 322 321 319 319 321 322 322 324 324 324 324 325 326 327 327 327 329 331 331 331 331 331 332 332 331 330 330 330 331 330 330 330 330 331 329 328 329 330 330 329 328 328 327 325 324 324 325 327
329 328 327 325 325 325 324 323 323 323 324 323 322 320 320 320 320 321 323 324 324 324 324 324 322 321 323 325 326 326 327 328 329 329 330 330 331 331 331 330 330 330 330 329 329 329 330 330 329 328 329 331 332 333 332 331 329 326 324 324 326 327
328 327 326 324 324 325 324 323 323 322 323 322 320 319 320 321 321 323 324 324 324 324 323 323 322 321 323 324 324 325 326 327 327 328 328 329 328 328 329 329 328 329 329 328 328 328 330 331 329 330 330 332 332 333 335 332 330 329 328 328 327 327
327 327 325 324 325 325 324 323 322 321 320 319 319 320 320 320 321 322 323 323 323 323 322 322 322 322 322 322 323 324 325 326 326 326 326 326 326 327 327 328 327 327 327 327 326 327 329 330 330 330 330 332 332 333 334 331 331 332 329 327 327 326
327 326 325 325 326 325 324 324 321 319 318 318 320 321 321 320 321 322 322 323 323 323 322 322 321 321 321 321 322 322 323 324 324 324 323 323 324 324 325 326 326 326 327 327 326 326 328 329 328 328 328 330 331 331 332 330 332 334 330 327 325 326
327 326 325 326 326 325 325 323 321 318 318 320 322 322 322 321 321 321 322 323 323 323 322 322 321 321 321 321 321 321 321 321 322 322 322 322 322 322 323 324 324 325 326 327 327 326 327 328 326 326 327 328 328 329 329 329 331 334 334 332 328 326
327 325 325 327 325 324 324 321 319 318 318 321 322 322 321 320 320 322 323 323 323 323 322 322 322 321 321 320 320 320 319 317 318 319 320 321 322 322 323 323 323 323 323 325 326 326 326 326 326 326 327 328 328 328 327 327 329 329 332 333 330 328
328 326 326 326 323 322 321 319 318 318 320 322 322 321 321 320 321 322 323 322 322 322 322 321 319 317 317 317 316 316 316 315 314 315 316 318 319 320 321 322 322 322 322 322 323 323 324 324 324 325 325 326 328 329 327 327 327 326 327 330 329 328
328 326 327 325 321 322 321 319 319 318 321 322 321 320 320 320 321 322 322 322 321 321 321 319 316 315 315 315 315 315 314 314 314 314 315 315 316 317 318 319 320 320 320 319 319 320 320 320 320 320 320 321 322 325 326 325 325 324 324 326 327 326
329 327 327 324 320 322 321 319 320 320 321 322 320 320 320 320 321 322 321 321 320 320 320 317 315 316 316 315 314 314 314 314 315 315 315 315 316 317 317 318 317 318 318 318 317 316 317 319 317 316 317 316 317 318 319 319 319 319 319 320 322 321
329 327 327 323 321 323 322 320 320 320 321 321 319 320 320 320 321 321 321 320 320 320 319 317 317 317 316 315 314 315 315 315 315 315 315 315 315 316 316 317 317 317 316 316 315 312 312 315 315 315 315 314 315 316 314 314 315 316 316 316 317 318
329 328 327 323 321 324 323 320 320 320 321 320 319 320 320 320 321 320 320 320 319 319 318 317 317 317 317 316 315 315 316 315 314 315 315 315 315 315 315 316 316 316 315 315 314 312 310 311 312 314 314 313 314 314 313 313 314 314 315 315 315 317
330 328 326 324 322 324 324 321 321 320 321 320 319 321 321 320 321 320 320 320 320 319 318 317 317 317 317 317 317 316 316 315 314 315 315 315 315 315 315 316 316 316 316 315 313 312 312 312 312 311 312 313 313 312 312 312 312 313 313 314 314 315
331 329 327 325 323 324 325 322 322 321 321 321 320 321 322 321 321 321 320 320 320 319 318 317 317 317 316 317 318 316 315 315 315 314 314 314 314 315 314 314 315 315 314 313 312 312 311 312 312 309 310 314 312 310 309 309 311 312 312 312 313 313
329 330 327 326 324 325 325 323 323 322 321 321 320 321 322 321 321 321 320 320 320 320 319 318 318 316 315 318 318 316 315 315 315 314 314 314 314 314 314 313 313 313 314 315 316 314 312 313 313 310 311 312 313 311 308 309 312 312 311 312 312 313
328 330 328 325 325 325 325 325 324 322 321 321 321 321 321 321 321 321 320 320 319 320 320 319 319 316 316 318 318 316 316 315 314 314 315 315 314 314 315 314 314 314 315 314 313 312 313 314 312 311 311 311 312 312 309 310 312 311 311 312 311 312

ECMWFFLT2_925_thetae_015.txt.gz
Theta_e
329 329 329 329 329 329 329 329 329 329 330 332 333 333 333 333 333 333 333 333 335 336 336 336 336 336 335 333 331 331 329 328 328 329 329 329 330 330 331 332 329 328 328 328 329 327 326 326 325 327 329 330 331 333 334 334 333 332 333 332 332 331
331 331 330 330 330 329 329 329 329 331 332 333 333 333 333 334 334 333 334 334 335 335 334 336 335 334 334 333 332 331 329 328 327 327 327 327 328 329 330 331 330 328 328 328 328 328 327 326 325 325 327 328 329 332 335 334 333 331 333 331 330 329
335 334 332 331 331 331 331 331 330 331 333 333 334 333 334 335 334 333 333 334 333 333 333 335 334 334 334 333 331 330 329 328 326 325 325 325 325 327 329 330 330 329 328 327 327 327 326 326 325 324 325 326 328 332 334 334 333 331 331 330 329 328
338 336 335 334 332 332 332 332 332 332 333 333 334 334 335 336 335 334 334 334 333 333 334 333 334 336 334 332 331 330 330 328 325 325 324 324 322 324 327 328 329 329 327 327 327 325 325 325 325 324 325 328 331 332 333 334 333 331 330 330 329 327
340 338 338 338 336 334 333 333 332 332 333 333 334 335 336 336 337 336 335 334 334 334 336 334 334 336 333 332 331 330 331 329 325 326 324 324 324 326 327 327 328 328 327 326 326 325 326 327 326 325 325 330 333 332 333 334 333 332 330 329 327 324
342 341 342 341 340 337 335 335 334 334 333 334 334 334 336 336 337 336 334 335 335 334 336 335 335 335 335 333 332 331 331 330 327 327 327 324 326 329 329 328 328 328 327 327 327 326 327 328 328 326 326 330 333 332 332 334 333 332 330 328 326 324
343 343 342 342 341 340 338 339 338 337 336 336 336 335 336 338 338 336 334 336 337 334 334 336 335 335 335 334 333 332 331 331 329 329 330 328 327 330 331 330 331 331 328 328 329 329 329 329 329 329 327 329 332 332 332 334 333 331 331 329 327 325
343 341 341 341 341 341 340 341 340 340 339 338 338 337 337 338 338 337 336 337 337 337 336 335 335 335 335 333 333 334 332 332 331 331 332 330 329 330 332 331 332 333 331 330 331 331 331 330 329 329 328 328 330 332 332 333 333 332 331 330 329 326
342 341 341 342 341 341 341 342 341 341 340 340 339 339 338 338 338 338 337 337 337 338 336 335 334 335 335 333 333 334 333 333 333 332 332 332 331 332 332 331 331 332 332 331 331 332 331 331 329 328 328 328 329 330 331 332 333 333 332 331 331 327
340 340 340 341 340 340 341 341 341 340 340 340 339 339 338 338 338 338 337 337 336 337 335 334 333 333 334 334 333 333 333 334 333 333 332 332 332 332 332 332 331 332 332 331 331 331 330 330 330 328 327 328 328 329 330 332 332 333 333 332 332 329
338 339 338 339 338 337 338 338 338 339 339 339 339 338 338 338 338 338 337 337 336 336 335 333 332 331 333 333 332 333 334 334 333 333 332 333 333 332 333 331 331 331 331 331 330 331 331 330 330 328 327 326 326 327 328 331 332 332 333 333 332 331
337 337 335 336 335 334 334 335 336 337 338 338 338 338 337 336 336 336 336 337 336 335 334 332 331 331 332 332 333 334 335 335 333 333 333 333 334 333 332 331 331 331 331 331 330 330 331 330 329 329 328 328 327 327 327 329 331 332 332 333 332 331
335 334 332 332 332 331 332 333 335 336 337 337 337 337 336 335 335 335 335 336 336 334 333 331 331 331 331 332 333 333 335 336 336 335 333 333 333 332 331 332 331 329 330 330 329 330 330 330 330 329 329 329 329 328 327 328 330 331 332 333 332 331
334 332 332 332 331 331 332 333 333 334 335 334 335 335 335 334 334 334 334 335 334 333 333 332 332 332 332 332 332 332 334 336 337 336 334 333 333 332 331 331 330 327 328 328 328 330 330 331 330 330 330 329 330 329 328 329 329 330 332 333 332 331
332 331 331 331 330 330 331 332 333 334 334 333 334 334 333 333 333 333 333 334 334 333 334 333 333 333 332 333 334 333 333 334 335 336 336 335 332 331 331 331 330 327 327 328 329 330 330 331 331 330 329 329 329 329 329 329 329 329 330 332 332 331
329 329 330 329 329 330 331 331 332 333 332 331 332 332 333 332 332 333 333 334 334 334 334 333 333 332 332 334 334 334 333 332 333 334 336 335 331 330 331 331 331 329 329 329 329 329 330 331 330 328 328 328 328 329 328 329 329 329 329 330 331 332
328 329 329 328 329 330 331 330 329 329 328 329 330 331 332 331 331 332 333 333 334 333 333 333 333 332 332 333 334 333 331 331 333 333 335 334 332 331 330 330 331 331 330 329 329 329 330 329 328 328 328 328 327 327 327 327 328 328 328 329 329 330
329 328 328 328 328 327 329 329 329 329 329 329 329 330 330 330 330 330 331 331 332 333 333 333 332 331 332 332 333 333 332 332 334 334 334 333 331 331 330 329 331 331 330 329 329 329 330 329 329 329 329 329 327 327 326 326 326 327 328 328 328 328
328 327 328 328 327 327 327 327 328 330 330 330 328 328 328 328 329 329 330 330 330 332 332 333 332 331 331 331 332 331 331 332 333 333 333 332 331 331 330 329 330 331 331 330 329 329 331 330 330 331 331 330 329 328 327 325 325 325 326 328 328 328
328 328 329 327 326 326 324 323 325 327 328 330 330 329 328 328 329 328 328 328 328 329 331 331 331 330 330 330 331 331 330 330 330 331 332 332 332 331 330 329 330 331 332 331 329 329 330 331 331 332 331 330 329 328 328 325 324 324 325 327 328 328
329 329 328 326 325 324 324 323 324 325 326 328 328 328 328 327 328 328 328 328 327 328 329 328 329 328 327 328 329 330 330 330 330 331 331 331 332 332 330 330 330 331 332 331 330 329 330 331 331 331 330 329 329 328 327 327 325 324 324 326 328 328
326 326 325 325 325 325 325 324 323 323 324 325 325 324 322 323 324 324 325 326 326 326 325 324 326 327 326 327 328 330 330 330 331 330 331 331 331 331 330 330 331 331 331 331 331 330 330 330 330 329 329 329 330 328 327 327 327 326 324 324 325 325
323 325 326 326 326 325 325 325 323 322 323 323 322 320 318 320 322 321 322 324 324 324 322 321 323 325 325 326 328 328 327 328 329 329 330 330 330 331 330 330 331 330 330 330 330 329 330 329 329 328 329 331 333 333 332 329 328 328 326 324 323 324
324 327 327 326 326 324 324 324 323 322 321 320 320 320 321 322 323 323 323 323 324 323 322 321 321 323 324 325 326 326 326 327 327 328 329 328 329 329 329 330 330 330 330 329 329 329 329 329 328 328 330 331 331 333 337 331 328 329 328 326 326 325
326 327 326 325 324 323 324 323 321 320 319 319 320 320 322 322 323 323 323 323 323 322 322 322 321 321 323 323 324 325 325 325 326 326 327 327 328 327 327 328 328 329 329 329 328 328 329 329 329 329 330 330 329 333 336 330 329 331 329 327 327 325
327 327 325 324 323 323 323 322 321 318 319 321 321 320 321 322 323 323 323 322 322 321 321 321 321 321 321 322 323 324 324 323 323 324 325 326 326 326 325 326 326 328 328 327 327 328 328 329 330 329 328 329 329 331 332 330 332 334 329 328 326 324
327 326 324 324 323 322 322 322 320 316 318 321 319 320 321 322 322 322 322 322 321 321 320 320 321 321 321 321 320 321 322 322 322 322 324 324 324 324 325 325 325 326 327 326 327 328 328 328 328 328 328 328 328 328 329 329 331 334 333 331 328 326
328 326 324 325 323 322 322 321 317 315 319 320 319 321 322 321 321 321 321 322 321 321 321 321 321 320 321 320 317 317 320 321 321 322 322 323 322 323 323 324 325 325 326 326 326 326 327 327 326 326 327 327 328 328 327 327 327 329 331 332 330 328
327 326 325 325 324 322 321 318 315 317 321 322 320 321 321 321 321 321 322 323 322 321 319 318 318 318 318 319 315 314 317 317 318 318 319 320 320 320 321 322 323 324 324 325 325 325 325 324 325 325 325 327 327 328 327 327 327 326 327 330 331 329
328 327 326 325 324 321 317 314 316 320 322 321 320 320 320 322 322 323 322 322 320 318 316 315 315 315 315 316 314 314 315 314 314 313 314 315 314 317 319 319 320 321 322 321 322 323 320 319 320 320 322 325 326 327 326 324 323 323 323 324 327 325
327 327 327 325 324 320 315 315 318 321 322 320 320 319 321 322 322 322 320 319 319 316 315 314 314 314 314 314 313 314 315 315 314 315 315 315 314 315 317 317 316 317 318 319 319 318 317 316 316 316 317 319 320 319 319 317 316 317 317 317 321 320
327 326 326 325 324 319 315 317 319 322 322 320 320 319 320 321 321 321 319 319 319 317 315 315 314 314 313 313 313 313 314 314 315 315 316 317 316 317 317 315 313 310 310 314 317 316 315 315 315 315 315 315 313 313 313 314 314 314 315 315 317 317
327 326 325 325 323 319 316 318 320 321 321 319 319 319 319 321 321 320 319 319 319 317 315 315 314 312 312 314 314 313 314 315 314 315 314 314 314 314 313 311 309 306 305 308 311 312 312 313 313 313 314 313 312 312 312 312 313 313 314 314 314 313
327 327 326 324 322 319 317 319 321 322 320 319 319 318 319 321 320 319 320 319 318 317 315 315 314 312 313 315 315 313 312 312 314 314 315 314 313 311 310 308 306 304 304 304 304 305 306 309 312 312 312 311 310 311 311 311 312 312 313 313 313 313
327 328 327 324 322 320 317 319 322 321 319 319 319 318 319 320 320 319 320 319 318 317 315 315 315 313 315 316 315 313 309 309 311 314 316 316 314 313 310 307 305 304 304 304 303 303 303 307 311 312 311 310 308 308 310 311 311 311 311 312 312 313
326 327 326 324 324 322 317 319 322 321 319 320 319 318 319 320 319 320 320 319 318 317 316 316 315 314 316 317 315 313 309 308 308 311 314 315 315 313 309 306 307 307 308 308 306 304 305 307 311 312 312 312 309 307 309 311 311 309 309 311 312 313
324 325 326 324 325 324 319 319 322 322 319 319 320 319 319 320 319 320 320 319 319 318 317 317 316 314 316 318 315 311 310 309 307 309 312 313 313 312 309 307 309 312 313 313 310 307 306 307 309 311 312 312 312 309 307 309 310 309 309 310 311 311